Hourly Data Report for October 31, 2014

All times are specified in Local Standard Time (LST). Add 1 hour to adjust for Daylight Saving Time where and when it is observed.

KITCHENER/WATERLOO
ONTARIO

43°27'39.000" N
80°22'43.000" W
321.60 m
6144239
71368
YKF

Download Data

Hourly Data (October 2014)
Hourly Data Report for October 31, 2014
Temp Definition
°C
Dew Point Temp Definition
°C
Rel Hum Definition
%
Wind Dir Definition
10's deg

Wind Spd Definition
km/h
Visibility Definition
km
Stn Press Definition
kPa
Hmdx Definition


Wind Chill Definition


Weather Definition


TIME
00:00 Legend Double Dagger 3.7 2.7 93 14 8 16.1 97.73     Rain
01:00 Legend Double Dagger 3.8 2.9 94 LegendMM 4 16.1 97.69     Rain
02:00 Legend Double Dagger 3.9 3.0 94 11 4 16.1 97.65     Rain
03:00 Legend Double Dagger 4.2 3.3 94 13 8 16.1 97.62     Rain
04:00 Legend Double Dagger 4.0 3.3 95 14 5 12.9 97.57     Rain
05:00 Legend Double Dagger 3.9 3.0 94 13 5 16.1 97.54     Rain
06:00 Legend Double Dagger 4.0 3.1 94 14 5 16.1 97.52     Rain
07:00 Legend Double Dagger 3.9 2.9 93 13 13 12.9 97.51     Rain
08:00 Legend Double Dagger 4.0 3.1 94 13 15 11.3 97.53     Rain
09:00 Legend Double Dagger 4.4 3.5 94 14 15 11.3 97.51     Rain
10:00 Legend Double Dagger 4.8 3.7 93 12 13 16.1 97.48     Rain
11:00 Legend Double Dagger 5.5 4.0 90 12 15 16.1 97.46     Rain
12:00 Legend Double Dagger 5.8 4.5 91 11 11 16.1 97.43     Rain
13:00 Legend Double Dagger 5.8 4.3 90 11 9 16.1 97.40     Rain
14:00 Legend Double Dagger 5.8 4.6 92 11 8 16.1 97.38     Rain
15:00 Legend Double Dagger 6.0 4.2 88 5 5 16.1 97.40     Rain
16:00 Legend Double Dagger 5.8 4.3 90 3 8 16.1 97.43     Rain
17:00 Legend Double Dagger 5.5 4.3 92 2 8 16.1 97.48     Rain
18:00 Legend Double Dagger 5.3 4.3 93 2 9 16.1 97.54     Rain
19:00 Legend Double Dagger 4.9 4.0 94 2 11 9.7 97.60     Fog
20:00 Legend Double Dagger 4.3 3.0 91 2 22 16.1 97.69     Rain
21:00 Legend Double Dagger 2.5 1.3 92 2 18 16.1 97.76     Rain
22:00 Legend Double Dagger 2.1 0.9 92 2 24 16.1 97.82     Rain
23:00 Legend Double Dagger 1.2 0.2 93 1 18 8.1 97.87     Rain,Fog

Notes on Data Quality.

Legend

  • E = Estimated
  • M = Missing
  • NA = Not Available
  • ‡ = Partner data that is not subject to review by the National Climate Archives
Date modified: